Location: Asheville, NC
(35.6000°N, 82.5500°W)
Time: 23:34:11
(UTC-04:00)

Vanguard 2 Rocket - Pass Details

Date: 14 December 2017
Orbit: 553 x 3328 km, 32.9° (Epoch: 25 April)

Event Time Altitude Azimuth Distance (km) Brightness Sun altitude
Rises 00:07:01 0° 280° (W) 6,455 11.3 -77.0°
Reaches altitude 10° 00:10:53 10° 278° (W) 5,700 10.9 -77.3°
Enters shadow 00:10:56 10° 278° (W) 5,691 10.9 -77.3°
Exits shadow 00:51:36 - 121° (ESE) 6,302 11.2 -76.3°
Sets 00:52:23 0° 121° (ESE) 6,458 11.2 -76.3°
